DELTA 1 DEB, 21351

Orbit data source: Space-Track

DELTA 1 DEB, 21351 is space debris in SSO originally from a launch on Thu, 12 Jun 1975 UTC launched from the Air Force Western Test Range (AFWTR). Debris objects in space refer to the collection of defunct objects orbiting the Earth. Examples of debris include non-operational satellites, rocket bodies, and fragments generated from explosions, collisions, or faulty payload assembly.

Loading next visibility...
Identifier
21351, 1975-052BV
Orbit
SSO
Country
Flag of USUS
Related business
Manufacturer
Unknown
Mission
Spacecraft
Bus & Motor
Unknown
Mass
Unknown
Launch date (UTC)
1975-06-12 (50 years ago)
Launch vehicle
Unknown
Launch site
Air Force Western Test Range (AFWTR)
Object type
Payload
Rocket body
Debris
Shape & HBR
Unknown shape, 0.3 m
Radar Cross Section
Medium (>0.1 m² and <1 m²)

Expand to show TLE details & history
Last TLE update: 12 hours ago

TLE from 12 hours ago
0 DELTA 1 DEB
1 21351U 75052BV  25291.30695728  .00000032  00000-0  15368-3 0  9991
2 21351  99.8175  61.4207 0065603 176.4553 213.4918 13.31618019672011
Epoch: 2025-10-18T07:22Z
TLE epoch observation values (Epoch: 2025-10-18T07:22:01.108Z)
Latitude
29.10684°
Longitude
-81.62428°
Altitude
1,185.386 km
Speed
7.244 km/s
True Right ascension
03h 43m 40s
True Declination
28° 58' 09"
Sunlit
Object was in full shadow at epoch
Visualization orbit readout
Latitude
Unknown
Longitude
Unknown
Altitude
Unknown
Speed
Unknown
Apparent Right ascension
Unknown
Apparent Declination
Unknown
Sunlit
N/A
Visualization observer readout
Local Sidereal Time
14:24:06
Azimuth
Unknown
Elevation
Unknown
Doppler factor
Unknown
Orbital elements
Apogee altitude
1,187.306 km
Perigee altitude
1,088.69 km
Semi-major axis
7,516.135 km
Eccentricity
0.00656
Inclination
99.8175°
RAAN
61.4207°
Arg. of periapsis
176.4553°
True anomaly
213.07979°
Mean anomaly
213.4918°
Eccentric anomaly
213.28551°
Mean motion
3.33082 °/min
Orbital period
108.08 mins
BSTAR
0.00015368
Loading maneuver chart data...
Computing Atmospheric mass density...

Documentation

Showing up to 5 results
|